Regional Weather Roundup
Issued by NWS

Home | Current Version | Previous Version | Graphics & Text | Print | Product List | Glossary On
Versions: 1 2 3 4 5 6 7 8 9 10 11 12 13 14 15 16 17 18 19 20 21 22 23 24 25 26 27 28 29 30 31 32 33 34 35 36 37 38 39 40 41 42 43 44 45 46 47 48 49 50
000
ASUS43 KIND 240559
RWRIN

WEATHER ROUNDUP FOR INDIANA
NATIONAL WEATHER SERVICE INDIANAPOLIS IN
200 AM EDT FRI MAR 24 2017

NOTE: "FAIR" INDICATES FEW OR NO CLOUDS BELOW 12,000 FEET WITH NO
SIGNIFICANT WEATHER AND/OR OBSTRUCTIONS TO VISIBILITY.

* - STATION DOES NOT REPORT WEATHER SUCH AS PRECIPITATION OR FOG.

+ - STATION NOT QUALITY CONTROLLED BY THE NATIONAL WEATHER SERVICE.
    USE DATA WITH CAUTION...ESPECIALLY DEWPOINT AND RELATIVE
    HUMIDITY OBSERVATIONS.

INZ001>003-010>013-019-020-240700-
NORTHWEST INDIANA

CITY           SKY/WX    TMP DP  RH WIND       PRES   REMARKS
MONTICELLO +   PTCLDY    52  34  50 S13G18    30.01F
6HR MIN TEMP:  49; 6HR MAX TEMP:  52;


$$

LMZ046-743>745-240700-
SOUTHERN LAKE MICHIGAN

STATION/POSITION TIME  TEMP    WIND        PRES    WAVE
                       AIR SEA DIR/SP/G            HT
                 (UTC) (F)     (DEG/KT/KT) (MB)    (FT)
BURNS HARBOR     0540   50     200/  8/ 15 1017.6R
MICHIGAN CITY    0530   49     150/  6/  8   N/A

$$

INZ004-005-014>016-021>024-240700-
NORTH CENTRAL INDIANA

CITY           SKY/WX    TMP DP  RH WIND       PRES   REMARKS
GOSHEN         CLOUDY    49  34  56 S10       30.06S
6HR MIN TEMP:  44; 6HR MAX TEMP:  50; 6HR PCP:  0.04;

SOUTH BEND     CLOUDY    46  36  68 SE7       30.06F
6HR MIN TEMP:  43; 6HR MAX TEMP:  48; 6HR PCP:  0.08;


$$

INZ006>009-017-018-025>027-240700-
NORTHEAST INDIANA

CITY           SKY/WX    TMP DP  RH WIND       PRES   REMARKS
ANGOLA *+      CLOUDY    43  32  65 SE7       30.08F
FORT WAYNE     CLOUDY    49  36  61 S10       30.08F
6HR MIN TEMP:  45; 6HR MAX TEMP:  49; 6HR PCP:  0.04;

KENDALLVILLE + CLOUDY    41  36  80 SE6       30.08S

$$

INZ028-029-035-036-043>045-051>053-240700-
WEST CENTRAL INDIANA

CITY           SKY/WX    TMP DP  RH WIND       PRES   REMARKS
CRAWFORDSVL +  CLEAR     48  38  67 S13       30.05F
6HR MIN TEMP:  46; 6HR MAX TEMP:  51;

GREENCASTLE +  CLEAR     50  36  57 S10       30.07F
LAFAYETTE      CLEAR     50  36  58 S10G18    30.01F
6HR MIN TEMP:  50; 6HR MAX TEMP:  52; 6HR PCP: TRACE;

TERRE HAUTE    CLOUDY    55  39  54 S14       30.07F
6HR MIN TEMP:  49; 6HR MAX TEMP:  55;


$$

INZ030>032-037>040-046>048-054>057-064-065-240700-
CENTRAL INDIANA

CITY           SKY/WX    TMP DP  RH WIND       PRES   REMARKS
INDIANAPOLIS   PTCLDY    52  35  52 S14       30.08F
6HR MIN TEMP:  50; 6HR MAX TEMP:  55;

-EAGLE CREEK   CLEAR     52  34  50 S9        30.07F
6HR MIN TEMP:  51; 6HR MAX TEMP:  55;

KOKOMO +       CLOUDY    49  36  61 S15       30.06F
6HR MIN TEMP:  48; 6HR MAX TEMP:  51; 6HR PCP: TRACE;

SHELBYVILLE    CLOUDY    52  36  54 S13       30.10F
6HR MIN TEMP:  49; 6HR MAX TEMP:  56; 6HR PCP: TRACE;


$$

INZ033-034-041-042-049-050-058-059-240700-
EAST CENTRAL INDIANA

CITY           SKY/WX    TMP DP  RH WIND       PRES   REMARKS
MUNCIE         CLOUDY    55  35  47 S15G23    30.08F
6HR MIN TEMP:  53; 6HR MAX TEMP:  55; 6HR PCP: TRACE;

RICHMOND +     PTCLDY    45  34  65 S13       30.14F

$$

INZ060-061-067>069-081>083-085>088-240700-
SOUTHWEST INDIANA

CITY           SKY/WX    TMP DP  RH WIND       PRES   REMARKS
EVANSVILLE     CLEAR     53  42  66 S6        30.12F
6HR MIN TEMP:  49; 6HR MAX TEMP:  53;

HUNTINGBURG *+ CLEAR     55  43  63 S7        30.13F
6HR MIN TEMP:  50; 6HR MAX TEMP:  57;


$$

INZ062-063-066-070>080-084-089>092-240700-
SOUTH CENTRAL AND SOUTHEAST INDIANA

CITY           SKY/WX    TMP DP  RH WIND       PRES   REMARKS
BLOOMINGTON    CLEAR     51  36  56 SE9       30.10F
6HR MIN TEMP:  50; 6HR MAX TEMP:  54;

MADISON *+     PTCLDY    54  37  54 S6        30.17F
SEYMOUR +      PTCLDY    52  39  62 S5        30.14F

$$





USA.gov is the U.S. government's official web portal to all federal, state and local government web resources and services.